Hourly Weather Roundup
Issued by NWS Central Illinois

Home | Current Version | Previous Version | Text Only | Print | Product List | Glossary On
Versions: 1 2 3 4 5 6 7 8 9 10 11 12 13 14 15 16 17 18 19 20 21 22 23 24 25 26 27 28 29 30 31 32 33 34 35 36 37 38 39 40 41 42 43 44 45 46 47 48 49 50
646
NZUS43 KILX 240510
HWRILX

Area Weather Roundup
National Weather Service Lincoln IL
1100 PM CST THU NOV 23 2017

NOTE:  "FAIR" indicates few or no clouds below 12,000 feet, with
       no sigificant weather and/or obstructions to visibility.


CITY           SKY/WX    TMP DP  RH WIND       PRES   REMARKS
Bloomington    CLEAR     29  26  89 S7        29.92F WCI  22
Champaign      CLEAR     34  27  75 S9        29.96S WCI  27
Danville       CLEAR     35  25  68 SW5       29.94S WCI  30
Decatur        CLEAR     36  27  69 S6        29.95F WCI  31
Effingham      CLEAR     33  27  76 SE3       30.00R
Flora          CLOUDY    35  27  72 CALM      29.99S
Galesburg      CLOUDY    31  28  89 SE5       29.91F WCI  26
Jacksonville   CLEAR     33  28  79 S5        29.93S WCI  29
Lacon          CLEAR     32  27  82 CALM      29.91R
Lawrenceville  CLEAR     36  25  64 SE3       30.01S
Litchfield     CLEAR     35  27  73 S6        29.95F WCI  30
$$


CITY           SKY/WX    TMP DP  RH WIND       PRES   REMARKS
Lincoln        CLEAR     33  29  87 S3        29.93F
Macomb         CLOUDY    33  28  82 S3        29.92F
Mattoon        CLEAR     37  26  64 S6        29.96S WCI  32
Mt Carmel AP   CLOUDY    33  24  69 SE5       30.00F WCI  28
Olney-Noble AP CLEAR     35  22  58 S3        30.00S
Paris AP       CLEAR     33  27  80 S9        29.98F WCI  25
Peoria         CLEAR     33  27  78 W3        29.93S
Pontiac        CLEAR     29  29  99 SE6       29.92F WCI  23
Rantoul        CLEAR     34  30  84 S5        29.94F WCI  30
Robinson       CLEAR     31  24  76 S3        30.01F
Springfield    CLEAR     31  27  85 CALM      29.94F
Taylorville    CLEAR     34  27  74 S7        29.95F WCI  28
$$

...REGIONAL REPORTS...


CITY           SKY/WX    TMP DP  RH WIND       PRES   REMARKS
Chicago O`Hare CLEAR     36  26  67 SW3       29.89F
Kankakee       CLEAR     32  28  84 S7        29.93F WCI  26
Moline         NOT AVBL
Mount Sterling CLEAR     34  27  76 S5        29.91F WCI  30
Mount Vernon   CLEAR     28  25  88 CALM      29.99F
Pittsfield     CLEAR     32  28  83 SW3       29.94S
Quincy         CLEAR     39  29  67 S8        29.91F WCI  33
Rockford       CLEAR     33  25  72 S5        29.89F WCI  29
$$


CITY           SKY/WX    TMP DP  RH WIND       PRES   REMARKS
Burlington     CLEAR     36  29  75 S5        29.87F WCI  32
Cedar Rapids   CLEAR     33  28  81 S6        29.82F WCI  28
Des Moines     CLOUDY    49  35  58 S12       29.79F
Kirksville     CLEAR     40  33  76 SW6       29.88F
Ottumwa        PTCLDY    42  32  67 S10       29.83F
St Louis       CLEAR     38  30  73 CALM      29.95F
$$


CITY           SKY/WX    TMP DP  RH WIND       PRES   REMARKS
Terre Haute    CLEAR     31  22  69 SE3       29.99F
Evansville     CLEAR     32  27  81 CALM      30.03S
Indianapolis   CLEAR     35  21  56 S5        30.00S WCI  31
Lafayette      CLEAR     34  24  67 CALM      29.97S
Madison        CLEAR     35  26  69 S7        29.81F WCI  29
Milwaukee      CLEAR     35  25  66 S5        29.86F WCI  31
$$






USA.gov is the U.S. government's official web portal to all federal, state and local government web resources and services.